Fullerton, CA

4:57 PM PST on December 08, 2016 (GMT -0800)
Fullerton Municipal

Weather History for KFUL - October, 2013

Change the Weather History Date:

Thursday, October 31, 2013

  Actual Average Record
Temperature  
Mean Temperature 66 °F 65 °F  
Max Temperature 83 °F 76 °F 90 °F (2005)
Min Temperature 49 °F 54 °F 48 °F (2000)
Degree Days  
Heating Degree Days 0 2  
Month to date heating degree days 21 21  
Since 1 July heating degree days 21 24  
Cooling Degree Days 1 2  
Month to date cooling degree days 108 113  
Year to date cooling degree days 1859 1231  
Growing Degree Days 15 (Base 50)    
Moisture  
Dew Point 43 °F    
Average Humidity 51    
Maximum Humidity 86    
Minimum Humidity 15    
Precipitation  
Precipitation 0.00 in 0.03 in 0.17 in (2014)
Month to date precipitation 0.13 0.75  
Year to date precipitation 2.66 10.73  
Since 1 July precipitation 0.13  
Snow  
Snow 0.00 in - - ()
Month to date snowfall 0.0  
Year to date snowfall 0.0  
Snow Depth 0.00 in    
Sea Level Pressure  
Sea Level Pressure 30.02 in    
Wind  
Wind Speed 1 mph (WSW)    
Max Wind Speed 10 mph    
Max Gust Speed 14 mph    
Visibility 10 miles    
Events      
T = Trace of Precipitation, MM = Missing Value Source: NWS Daily Summary

Daily Weather History Graph

Daily Weather History Graph

Search for Another Location

Airport or City:

Trip Planner

Search our weather history database for the weather conditions in past years. The results will help you decide how hot, cold, wet, or windy it might be!

Date:

Astronomy

Oct. 31, 2013 Rise Set
Actual Time 7:10 AM PDT 5:59 PM PDT
Civil Twilight 6:44 AM PDT 6:25 PM PDT
Nautical Twilight 6:15 AM PDT 6:55 PM PDT
Astronomical Twilight 5:46 AM PDT 7:24 PM PDT
Moon 4:12 AM PDT (10/31) 4:14 PM PDT (10/31)
Length of Visible Light 11h 40m
Length of Day
10h 49m
Waning Crescent, 9% of the Moon is Illuminated
Oct 31
Waning Crescent
Nov 3
New
Nov 9
First Quarter
Nov 17
Full
Nov 25
Last Quarter

Hourly Weather History & Observations

Time (PDT) Temp. Dew Point Humidity Pressure Visibility Wind Dir Wind Speed Gust Speed Precip Events Conditions
12:53 AM 55.0 °F 46.0 °F 72% 30.04 in 10.0 mi Calm Calm - N/A   Clear
1:53 AM 54.0 °F 45.0 °F 72% 30.05 in 10.0 mi Calm Calm - N/A   Clear
2:53 AM 52.0 °F 44.1 °F 74% 30.04 in 10.0 mi Calm Calm - N/A   Clear
3:53 AM 52.0 °F 46.0 °F 80% 30.03 in 10.0 mi Calm Calm - N/A   Clear
4:53 AM 50.0 °F 45.0 °F 83% 30.03 in 10.0 mi Calm Calm - N/A   Clear
5:53 AM 50.0 °F 45.0 °F 83% 30.04 in 10.0 mi Calm Calm - N/A   Clear
6:53 AM 48.9 °F 44.1 °F 83% 30.04 in 10.0 mi Calm Calm - N/A   Clear
7:53 AM 52.0 °F 46.0 °F 80% 30.06 in 10.0 mi Calm Calm - N/A   Clear
8:53 AM 59.0 °F 45.0 °F 60% 30.07 in 10.0 mi East 4.6 mph - N/A   Clear
9:53 AM 64.0 °F 45.0 °F 50% 30.08 in 10.0 mi Calm Calm - N/A   Clear
10:53 AM 71.1 °F 41.0 °F 34% 30.07 in 10.0 mi Calm Calm - N/A   Clear
11:53 AM 75.0 °F 39.9 °F 28% 30.05 in 10.0 mi Calm Calm - N/A   Clear
12:53 PM 78.1 °F 37.9 °F 24% 30.02 in 10.0 mi Calm Calm - N/A   Clear
1:53 PM 82.0 °F 35.1 °F 18% 29.99 in 10.0 mi Variable 4.6 mph - N/A   Clear
2:53 PM 82.0 °F 30.9 °F 16% 29.98 in 10.0 mi Calm Calm - N/A   Clear
3:53 PM 79.0 °F 48.0 °F 34% 29.96 in 10.0 mi SW 5.8 mph - N/A   Clear
4:53 PM 79.0 °F 39.9 °F 25% 29.96 in 10.0 mi Variable 6.9 mph - N/A   Clear
5:53 PM 73.0 °F 42.1 °F 33% 29.97 in 10.0 mi WNW 4.6 mph - N/A   Clear
6:53 PM 68.0 °F 43.0 °F 40% 29.99 in 10.0 mi Calm Calm - N/A   Clear
7:53 PM 64.9 °F 42.1 °F 43% 30.00 in 10.0 mi Calm Calm - N/A   Clear
8:53 PM 63.0 °F 44.1 °F 50% 30.01 in 10.0 mi Calm Calm - N/A   Clear
9:53 PM 60.1 °F 44.1 °F 55% 30.02 in 10.0 mi Calm Calm - N/A   Clear
10:53 PM 57.9 °F 45.0 °F 62% 30.03 in 10.0 mi Calm Calm - N/A   Clear
11:53 PM 57.0 °F 45.0 °F 64% 30.03 in 10.0 mi Calm Calm - N/A   Clear